ハーマン彗星

275P/Hermann (1999)

English version
Home page
Updated on December 29, 2012

---------------------------------------------------------------------

・ プロフィール

符号 275P/1999 D1
発見日 1999年 2月20日
発見光度 18.4等
発見者 S. M. Hermann (Lowell Observatory)

・ 写真集

・ 軌道要素

Epoch 1999 Mar. 3.0 TT = JDT 2451240.5
T 1999 Feb. 18.02221 TT                                 MPC
q   1.6547739            (2000.0)            P               Q
n   0.07117879     Peri.  173.09513     -0.95511526     -0.28840735
a   5.7663677      Node   349.37674     +0.25121144     -0.66753088
e   0.7130301      Incl.   21.52734     +0.15699572     -0.68645737
P  13.8
From 121 observations 1999 Feb. 20-2012 Dec. 25, mean residual 0".8.

・ 星図

・ 光度変化

        m1 = 15.0 + 5 logΔ + 15.0 log r

---------------------------------------------------------------------

軌道要素はM.P.E.C. 2012-Y29に掲載されたものです。
星図は StellaNavigator Ver.2.0 for Windows (アストロアーツ編著 / アスキー出版局刊) で作成したものです。
光度グラフはComet for Windowsで作成したものです。

---------------------------------------------------------------------

Copyright(C) Seiichi Yoshida (comet@aerith.net). All rights reserved.